THOR ABLESTAR DEB, 334

Orbit data source: Space-Track

THOR ABLESTAR DEB, 334 is space debris in LEO originally from a launch on Thu, 29 Jun 1961 UTC launched from the Air Force Eastern Test Range (AFETR). Debris objects in space refer to the collection of defunct objects orbiting the Earth. Examples of debris include non-operational satellites, rocket bodies, and fragments generated from explosions, collisions, or faulty payload assembly.

Loading next visibility...
THOR ABLESTAR DEB details
Identifier
334, 1961-015DL
Orbit
LEO
Last TLE update13 hours ago
Origin
Flag of USUSAF SSD (US)
ManufacturerUnknown
MissionSpacecraft
Bus & MotorUnknown
MassUnknown
Launch date (UTC)
1961-06-29 (64 years ago)
Launch vehicleUnknown
Launch site
Air Force Eastern Test Range (AFETR)
Object type
Payload
Rocket body
Debris
Shape & HBRUnknown
Radar Cross SectionSmall (<0.1 m²)

Expand to show TLE details & history

TLE from 13 hours ago
0 THOR ABLESTAR DEB
1 00334U 61015DL  25015.35238144  .00000044  00000-0  92136-4 0  9999
2 00334  66.9250   3.8484 0073633 118.9075 241.9418 13.91619050224002
Epoch: 2025-01-15T08:27Z
Definitive object data (Epoch: 2025-01-15T08:27:25.756Z)
Latitude0.00002°
Longitude121.94514°
Altitude950.646 km
Speed7.364 km/s
True Right ascension00h 15m 23s
True Declination0° 00' 00"
Sunlit
Object was in daylight at TLE epoch
Visualization TLE readout
Latitude-55.0212°
Longitude83.29517°
Altitude997.23 km
Speed7.325 km/s
Apparent Right ascension14h 11m 33s
Apparent Declination-82° 29' 14"
Sunlit
Object is in daylight
Visualization observer readout
Local Sidereal Time22:39:01
Azimuth188.38° SSW
Elevation-44.132°
Doppler factor1
Orbital elements
Apogee altitude975.089 km
Perigee altitude867.593 km
Semi-major axis7,299.478 km
Eccentricity0.0073633
Inclination66.925°
RAAN3.8484°
Arg. of periapsis118.9075°
True anomaly241.20043°
Mean anomaly241.9418°
Eccentric anomaly241.57079°
Mean motion3.48021 °/min
BSTAR0.000092136
Orbital period103.44 mins
Loading maneuver chart data...

THOR ABLESTAR DEB Visibility forecast

Observer location: undefined°, undefined

Span
Click to sort rows by Start time (UTC) header in descending order
Start Az.
Max El. time (UTC)
Max El. Az.
Max El.
End time (UTC)
End Az.
11 mins2025-01-16 00:05:05.357Z182.057° SSW2025-01-16 00:11:05.357Z98.89° ESE35.034°2025-01-16 00:16:05.357Z41.646° NE
9 mins2025-01-16 01:53:05.357Z256.121° W2025-01-16 01:57:05.357Z308.973° NW26.868°2025-01-16 02:02:05.357Z9.629° NNE
9 mins2025-01-16 09:10:05.357Z352.693° N2025-01-16 09:14:05.357Z63.759° ENE33.852°2025-01-16 09:19:05.357Z124.832° SE
8 mins2025-01-16 10:56:05.357Z302.29° NW2025-01-16 11:00:05.357Z247.561° W25.595°2025-01-16 11:04:05.357Z198.139° SSW
|